Location: Christianberg
(48.9086°N, 14.0209°E)
Time: 22:09:31
(UTC+00:00)

Cosmos 1814 Rocket - Pass Details

Date: 20 June 2021
Orbit: 745 x 787 km, 74.1° (Epoch: 04 August)

Event Time Altitude Azimuth Distance (km) Brightness Sun altitude
Exits shadow 00:51:53 20° 193° (SSW) 1,696 5.2 -13.9°
Maximum altitude 00:55:30 77° 111° (ESE) 781 4.0 -13.6°
Drops below altitude 10° 01:00:40 10° 26° (NNE) 2,281 8.0 -13.2°
Sets 01:03:01 0° 25° (NNE) 3,206 9.3 -13.0°
